Temp
13 14 14 14 14 14 14 14 14 14 15 15 15 15 16 16 16 16 16 16 16 16 17 18 17 17 17 17 17 17 16 16 17 17 17 17 17 16 16 16 16 16 16 16 17 17 18 18 18 18 18 18 18 18 18 18 18 18 19 19 20 20 20 20 19 19 19 18 19 19 19 18 18 18 18 17 16 17 17 17 16 16 16 16 16
14 14 14 14 14 14 14 14 13 14 14 14 15 15 15 16 16 16 16 16 16 16 17 18 18 18 18 17 17 17 17 17 17 17 17 17 17 16 16 16 16 16 16 16 17 17 17 18 18 18 18 18 18 18 18 18 18 18 19 19 19 20 20 20 19 18 18 19 19 19 19 19 19 19 18 17 16 17 17 17 16 17 16 16 16
15 15 15 14 14 14 14 14 13 13 13 13 14 14 14 15 16 16 16 16 17 17 17 17 18 18 18 17 18 18 17 17 17 17 17 17 17 16 16 16 16 16 16 16 16 17 17 18 18 18 18 18 18 18 18 18 18 18 19 19 19 19 19 20 19 18 19 20 19 19 19 19 19 19 18 18 17 17 18 17 17 17 18 17 17
16 16 16 15 14 14 14 14 13 13 13 13 13 13 13 14 15 16 16 17 17 17 17 17 17 17 17 17 18 18 18 17 16 16 16 16 17 17 17 17 17 16 16 16 16 16 17 17 17 18 18 18 18 18 18 18 18 18 18 19 19 19 19 19 19 18 19 20 19 19 19 19 19 19 18 18 18 18 18 18 18 18 18 18 18
16 16 16 15 15 15 14 13 13 13 13 13 12 13 13 13 14 15 16 16 17 17 17 17 17 17 17 17 17 17 17 17 16 17 16 16 17 17 17 17 17 17 16 16 15 16 17 17 17 18 18 18 18 18 18 18 18 18 18 18 19 19 18 19 19 19 20 20 20 20 20 19 20 20 20 19 19 19 19 19 19 19 19 19 18
16 16 16 15 15 14 14 14 13 13 13 13 12 12 13 13 13 14 15 15 16 16 17 17 17 17 17 17 17 17 17 17 17 17 17 16 17 17 17 17 17 17 17 16 15 16 17 17 17 18 18 18 18 18 18 18 19 19 18 18 19 19 19 20 20 20 21 21 21 21 20 20 21 21 20 20 19 19 20 19 19 19 19 19 19
15 16 16 16 15 14 14 14 14 14 13 13 13 12 12 12 13 14 15 15 16 16 16 16 17 17 17 17 17 17 17 17 17 18 17 17 17 17 16 16 17 17 17 16 16 16 17 18 18 18 17 17 17 18 18 18 17 17 17 17 18 18 19 19 20 21 21 21 21 21 21 20 21 20 21 20 20 20 20 20 20 20 19 19 19
15 15 16 15 15 15 14 14 14 14 13 13 12 12 12 12 12 12 13 14 15 16 16 16 16 16 16 16 17 17 17 17 17 17 18 17 17 16 16 16 17 17 17 17 16 17 17 18 18 17 17 17 16 17 18 17 16 16 16 16 18 18 18 19 20 21 21 21 21 21 21 20 20 20 21 20 20 20 20 20 20 20 19 19 19
15 15 15 15 15 15 14 14 14 14 13 12 12 12 12 12 11 11 12 12 13 14 15 16 16 16 16 16 16 16 17 17 16 16 17 17 17 17 16 16 17 17 16 17 17 17 17 18 17 17 16 16 16 16 17 17 17 17 17 17 17 18 19 19 20 20 21 21 21 21 21 20 20 20 20 20 20 20 20 20 20 20 19 19 19
15 14 14 14 14 14 14 14 14 13 13 12 12 12 11 11 11 10 10 11 12 13 13 14 15 16 16 16 16 16 16 16 16 17 16 17 17 17 17 16 16 16 16 17 17 17 18 17 17 17 17 16 16 17 18 18 18 17 17 17 17 18 18 19 19 20 20 20 21 20 20 20 20 20 20 20 20 20 20 20 20 20 20 19 19
14 14 14 14 14 14 14 13 13 13 12 12 11 11 11 10 10 10 9 10 10 11 11 12 13 14 15 15 15 15 15 15 16 16 16 16 17 17 17 16 16 16 17 17 17 17 18 17 17 17 17 17 17 17 18 18 17 17 17 17 17 17 18 18 19 18 17 18 19 19 19 20 20 19 19 20 20 20 20 20 20 20 20 20 20
14 14 14 14 13 13 13 13 13 12 12 11 11 11 10 10 9 9 9 9 8 9 9 10 11 12 13 14 14 14 15 15 15 15 16 16 17 17 17 17 17 16 16 16 16 17 17 16 17 17 17 18 17 17 17 17 17 17 17 17 17 17 17 18 18 17 16 16 17 17 17 18 19 19 19 19 19 19 20 19 19 20 20 20 19
14 14 13 13 13 13 13 12 12 11 11 11 10 10 10 9 9 8 8 8 8 8 8 8 9 11 11 12 12 13 13 14 15 15 15 16 16 16 16 17 17 16 16 16 16 17 18 17 16 16 17 17 17 17 17 17 17 17 17 17 16 16 16 17 17 16 16 17 16 17 16 16 17 19 19 19 19 19 19 19 19 19 19 18 17
14 13 12 12 12 12 12 12 12 11 11 10 10 10 9 9 8 8 8 8 7 7 7 7 7 8 9 9 10 11 12 13 14 14 14 15 15 15 16 16 16 16 16 16 17 18 18 17 17 16 16 16 17 17 16 16 16 16 16 16 16 15 15 15 16 16 17 17 16 17 17 16 15 17 19 19 19 19 19 19 19 19 18 16 16
13 12 12 12 11 11 11 11 11 11 11 10 10 9 9 8 8 7 7 7 7 6 6 6 6 6 7 8 8 9 10 11 12 13 13 13 14 15 15 15 16 16 16 17 18 18 17 17 17 17 17 16 16 17 16 16 16 15 15 15 14 14 14 14 16 16 16 16 16 17 17 16 16 17 18 19 18 18 18 18 18 17 16 15 14
13 12 12 11 11 11 11 10 10 11 11 10 10 9 8 8 7 7 7 7 6 6 6 5 5 5 6 6 7 7 8 9 10 11 12 13 13 14 15 15 15 16 16 17 18 17 16 16 17 17 16 16 17 17 16 16 16 15 14 14 13 13 13 14 15 15 15 16 16 16 16 16 17 17 18 17 17 17 17 17 16 16 16 16 15
12 12 11 10 10 10 10 9 9 10 10 10 10 9 8 8 7 7 7 7 6 6 6 5 5 5 5 5 5 6 7 8 9 10 11 12 12 13 14 14 15 15 16 16 17 16 15 15 16 16 16 16 17 16 16 16 16 15 14 13 12 12 12 13 14 14 15 15 15 14 15 15 16 17 16 16 16 17 17 17 17 17 17 17 17
12 11 10 10 10 10 9 9 9 10 10 10 9 9 9 8 8 7 7 7 6 6 6 5 5 5 4 4 5 5 6 7 8 9 10 11 11 13 14 14 15 15 15 15 14 14 15 16 16 16 16 16 16 16 16 16 16 15 14 13 12 11 11 12 13 13 14 14 13 13 14 14 14 15 15 15 16 16 16 17 17 17 17 18 17
11 10 10 10 10 9 9 9 9 9 10 9 9 9 9 9 8 8 7 7 6 6 6 5 5 4 4 4 4 4 5 6 7 9 9 10 12 13 14 14 14 14 14 13 13 13 13 14 15 15 15 15 15 14 15 15 15 15 14 13 12 11 11 12 12 13 13 13 12 13 13 13 13 13 13 13 14 15 15 15 15 16 17 17 17
11 10 10 10 10 9 9 9 9 9 9 9 9 9 9 9 9 9 8 8 7 6 6 6 5 4 4 4 4 4 4 5 6 8 9 10 11 13 14 13 13 13 13 12 12 12 12 13 13 14 14 14 14 14 14 14 15 15 14 14 13 12 11 11 12 12 12 12 12 12 12 12 12 12 12 12 12 13 13 13 13 14 14 15 15
11 10 10 10 10 10 9 9 9 9 9 9 9 10 9 9 9 9 8 8 7 7 6 6 6 5 4 4 4 4 4 4 5 7 9 9 10 12 13 13 12 12 12 11 11 11 11 11 11 11 12 13 13 13 14 14 14 14 14 13 12 11 11 11 11 12 12 11 11 11 11 11 11 11 11 11 11 11 12 12 12 12 12 12 14
11 11 10 10 10 10 9 9 9 9 8 9 9 9 9 9 9 9 9 8 8 7 7 6 6 5 5 4 4 4 4 4 4 5 7 8 9 11 12 12 11 12 11 10 10 10 10 10 10 10 11 12 12 13 13 13 13 13 13 13 12 12 11 11 11 12 12 12 12 11 11 11 10 10 10 10 10 10 10 10 11 11 11 11 11
11 11 11 10 10 10 10 9 9 9 9 9 8 8 8 8 9 9 9 9 8 7 7 6 6 6 5 4 4 4 4 4 4 4 5 6 7 9 10 10 10 11 11 9 9 9 9 9 9 10 10 11 12 12 12 13 12 12 12 12 12 11 11 11 12 12 12 12 11 11 10 10 10 10 9 9 9 9 9 9 10 10 10 10 10
10 10 10 10 10 10 10 10 9 9 9 9 9 9 8 8 8 9 9 9 8 8 7 7 6 6 5 4 3 4 4 4 4 5 4 4 5 6 8 8 9 9 9 8 7 8 8 9 9 9 10 10 11 11 11 11 11 10 11 11 11 11 11 11 11 11 11 10 10 10 9 9 9 9 8 8 8 8 8 9 9 9 9 9 9
10 10 10 10 10 10 10 9 9 9 9 9 9 9 8 8 8 8 8 8 8 8 7 7 7 6 5 4 3 3 4 4 4 5 5 5 5 5 5 6 7 8 8 7 6 7 7 8 8 9 8 9 10 10 10 9 9 10 10 10 10 10 10 10 10 10 9 8 8 8 8 8 8 8 8 8 8 8 8 8 8 8 8 9 9
10 10 10 10 10 10 9 9 9 9 9 9 9 9 8 7 7 7 7 8 7 7 7 7 7 6 6 5 4 3 3 4 4 4 5 5 5 5 5 5 5 5 6 6 6 6 7 8 8 9 8 7 8 9 8 8 9 9 9 9 9 9 9 9 9 9 8 8 7 7 7 8 8 8 8 8 8 8 8 8 8 8 8 8 8
10 10 9 9 9 9 9 9 9 8 8 8 8 8 8 7 6 5 6 6 6 6 6 6 6 6 6 5 5 3 2 3 4 4 4 4 5 5 5 5 5 5 4 5 5 5 6 7 8 8 7 6 6 7 7 7 8 8 8 8 8 8 8 9 8 8 7 7 7 7 7 7 7 7 8 8 8 8 8 8 8 9 9 9 9
10 10 10 9 9 9 9 9 9 8 7 7 7 8 7 7 6 5 4 5 5 5 5 5 5 5 5 5 5 4 2 2 2 3 3 4 4 4 5 5 5 5 5 5 5 4 5 6 7 7 7 7 6 6 7 7 7 7 7 7 7 7 7 8 8 7 7 7 7 7 7 7 7 7 7 8 8 8 8 9 9 9 9 10 10
10 10 10 10 9 9 9 9 9 9 7 6 6 6 7 7 6 5 4 5 5 5 4 4 4 4 4 3 3 3 2 1 2 2 3 3 4 4 4 4 4 5 5 5 6 5 5 6 6 6 6 6 6 5 6 6 6 6 6 6 6 6 6 6 7 6 6 7 7 7 7 7 7 7 7 7 7 8 8 8 9 9 9 10 11
11 11 10 10 10 10 10 9 9 9 8 7 7 6 6 6 6 5 4 5 5 5 5 4 3 4 4 3 2 2 2 2 2 3 3 3 3 3 4 4 4 4 5 5 6 6 6 5 5 5 5 6 5 5 5 5 5 6 6 6 6 6 6 6 6 6 6 6 6 7 7 7 7 7 7 7 7 7 8 8 9 9 9 10 11
11 11 11 10 10 10 10 10 9 9 9 9 8 7 6 5 5 5 5 5 5 5 5 5 4 4 3 3 2 2 2 3 3 3 3 4 4 4 4 4 4 4 4 5 5 5 5 4 4 4 5 4 4 4 5 5 5 5 5 5 6 6 6 5 5 6 6 6 6 6 6 6 7 7 7 7 7 7 8 8 9 9 10 10 11
11 11 11 11 10 10 10 10 10 10 9 9 8 8 8 7 6 5 5 5 5 5 5 5 5 5 4 3 3 2 2 3 3 4 4 4 4 4 4 4 4 4 4 4 4 4 4 3 3 4 4 4 4 4 5 5 4 5 5 5 5 5 5 5 5 5 5 5 5 6 6 6 6 7 7 7 7 7 8 8 9 9 10 10 10
10 10 10 11 11 11 10 10 10 10 9 9 9 8 8 8 7 7 6 5 5 5 5 5 5 5 5 4 3 3 3 3 3 4 4 4 4 4 4 4 4 4 4 4 4 3 4 4 3 4 4 4 4 4 4 4 4 4 4 4 4 4 4 4 4 4 5 5 5 5 5 6 6 6 7 7 7 7 8 8 8 8 8 8 9
10 10 10 10 10 11 10 10 10 10 10 9 9 9 8 8 8 8 7 7 6 6 5 6 5 5 5 5 4 4 3 3 3 3 4 4 4 4 4 4 4 4 4 4 3 3 3 3 3 3 3 3 3 4 4 4 4 3 3 3 3 3 4 4 4 4 5 5 5 5 6 6 6 7 7 7 7 7 8 8 8 8 8 8 9
11 10 10 10 10 10 10 10 10 10 10 10 9 9 9 8 8 8 8 8 7 7 7 6 6 6 5 5 5 4 4 4 3 3 4 4 4 4 4 4 4 3 3 3 3 3 3 3 3 3 3 3 3 3 3 3 3 3 3 3 3 3 3 4 4 4 5 5 5 5 6 6 7 7 7 7 7 7 8 8 8 8 8 8 8
11 10 10 10 10 10 10 10 10 9 10 10 9 9 9 8 8 8 8 8 7 8 8 7 7 6 6 6 5 5 4 4 4 4 4 4 4 5 4 4 3 3 3 3 3 3 3 3 3 3 3 3 3 3 3 3 3 3 3 3 3 3 4 4 4 4 5 5 5 5 6 6 6 7 7 7 7 7 7 7 7 7 7 7 7
10 10 10 10 10 11 10 10 10 10 9 10 10 9 9 8 8 8 8 8 7 8 7 7 7 7 7 6 6 5 5 5 4 4 4 4 4 5 5 4 4 4 3 3 3 3 3 3 3 3 3 3 3 3 3 3 3 3 3 4 4 4 4 4 4 5 5 5 5 6 6 6 6 7 7 7 7 6 6 6 6 6 6 6 7
9 9 9 9 9 10 11 10 10 10 10 10 10 9 9 9 8 8 8 8 8 8 7 7 6 6 6 6 6 6 6 5 5 4 4 4 4 4 4 4 4 4 4 4 4 4 4 3 3 3 3 3 3 3 4 4 4 4 4 4 4 4 4 4 5 5 5 5 5 6 6 6 7 7 7 7 7 6 6 6 6 6 6 6 7
9 9 9 9 9 10 11 10 10 10 10 10 10 9 9 9 9 8 8 8 8 8 7 7 6 6 6 6 6 6 6 6 5 4 4 3 4 4 4 4 4 4 4 4 4 4 4 4 4 3 3 3 3 3 3 3 4 4 4 4 4 4 5 5 5 5 6 6 6 6 6 6 6 6 6 6 6 6 6 6 6 7 7 6 6
10 10 9 9 9 10 10 10 10 10 10 10 10 9 9 9 9 9 8 8 8 8 8 7 7 6 6 6 5 5 6 6 5 4 4 3 3 4 4 4 4 4 4 4 4 4 4 4 4 4 4 4 4 4 4 4 4 4 4 4 5 5 5 5 6 6 6 6 6 6 6 6 6 6 6 6 6 6 6 6 6 6 6 6 6
11 11 10 10 10 10 10 10 10 10 9 10 10 9 9 9 9 9 8 8 8 8 8 8 7 6 6 6 6 5 6 6 6 5 4 4 3 3 3 3 3 3 3 3 3 3 3 3 3 4 4 4 4 4 4 4 5 5 5 5 5 5 5 5 5 5 6 6 6 6 6 6 6 6 6 6 6 6 6 6 6 6 6 6 6
11 11 10 10 10 10 10 10 10 10 10 9 9 9 9 9 9 9 8 8 8 8 8 8 8 7 6 6 6 6 6 6 6 6 5 4 4 3 3 3 3 3 3 3 3 3 3 3 3 4 4 4 4 4 5 5 5 5 5 5 5 5 5 5 5 5 5 5 5 5 5 5 5 6 5 5 6 6 6 6 6 6 6 6 6
10 10 10 10 10 10 10 10 10 10 10 9 8 9 9 9 9 9 9 8 8 8 8 8 8 7 7 6 6 6 6 6 6 6 6 5 4 3 3 3 3 3 3 4 4 4 4 4 4 4 4 4 4 4 5 5 5 5 5 5 5 5 5 5 5 5 5 5 4 4 5 5 5 6 5 5 6 6 6 6 6 6 6 6 6
10 10 10 10 10 10 10 9 9 9 9 9 9 9 9 9 9 9 9 9 8 8 8 8 8 8 8 7 7 7 7 7 6 6 6 6 5 4 4 3 3 3 3 3 3 4 4 4 3 3 3 3 3 3 4 4 4 5 5 5 5 5 5 5 5 5 5 5 5 5 5 5 5 6 6 5 5 5 6 6 6 6 6 6 6
10 10 10 10 10 10 9 9 9 9 9 9 9 9 9 9 9 9 9 9 8 8 8 8 8 8 8 8 7 7 7 7 7 6 6 6 6 5 5 4 3 3 3 3 3 3 3 3 3 3 3 3 3 3 3 3 3 4 4 4 4 4 4 4 4 4 4 4 5 5 5 5 5 5 5 5 5 5 6 5 5 5 5 6 5
10 10 10 10 10 9 9 9 9 9 9 9 9 9 9 9 9 9 8 8 8 8 8 8 8 8 8 8 7 7 7 7 7 7 6 6 6 5 5 4 4 3 3 2 2 2 3 3 3 3 3 3 3 3 3 3 3 3 3 3 3 3 3 3 3 3 3 3 4 4 4 5 5 5 4 4 5 5 5 5 5 5 5 5 5
9 9 9 10 9 9 9 9 9 9 9 9 9 9 9 9 9 9 8 8 8 8 8 8 8 8 8 8 7 7 7 7 7 7 6 6 6 5 5 4 4 4 3 2 2 2 2 2 2 2 2 2 2 3 3 3 3 3 3 3 3 3 3 2 3 3 3 3 3 3 3 4 4 4 4 4 4 5 5 4 5 4 4 4 5
9 9 9 9 9 9 9 9 9 9 9 9 9 9 9 9 9 9 9 9 8 8 8 8 8 8 8 8 7 7 7 7 7 6 6 6 6 5 4 4 4 4 4 3 2 2 2 2 2 2 2 2 2 2 3 3 3 3 3 2 2 2 2 2 2 2 2 2 2 2 3 3 3 3 3 3 3 4 4 4 5 4 4 4 5
9 9 9 9 9 9 9 9 9 9 9 9 9 9 9 9 9 9 9 9 9 9 8 8 7 7 8 8 8 7 7 7 7 7 6 6 6 6 5 4 4 4 4 4 3 2 2 2 2 2 2 2 2 2 2 3 3 3 2 2 2 2 2 2 2 2 2 2 2 2 3 3 3 3 3 3 3 3 3 3 4 4 4 4 4
9 9 9 9 9 9 9 9 10 10 9 9 9 9 9 8 9 9 8 8 8 9 9 8 8 8 7 7 7 8 7 7 7 7 7 6 6 6 5 4 4 4 4 4 4 3 3 2 2 2 2 2 2 2 2 2 2 2 2 2 2 2 2 2 2 2 1 2 2 2 2 2 2 2 3 3 3 3 3 3 3 4 4 4 4
9 9 9 9 9 9 9 9 9 10 9 9 9 9 9 8 8 8 8 8 8 8 8 8 8 8 7 7 7 7 7 7 6 6 6 6 6 6 5 5 4 4 4 4 4 4 4 3 3 3 3 2 2 2 2 2 2 2 2 2 2 2 2 1 1 1 1 1 1 1 2 2 2 2 2 3 3 3 3 3 3 3 4 4 4
Height
809 808 806 805 804 802 801 799 798 796 794 793 792 790 790 789 787 786 785 786 786 784 782 780 779 778 778 780 781 781 781 782 783 782 783 785 787 789 792 794 795 795 797 799 798 796 796 797 798 800 801 802 803 803 803 804 805 806 807 808 809 811 812 814 815 816 819 821 821 822 824 826 828 831 833 834 836 839 841 841 843 845 846 848 849
809 808 807 806 804 803 801 800 798 797 795 794 792 791 789 788 787 785 784 784 785 783 780 778 777 776 776 777 777 778 778 779 780 780 780 781 782 785 788 791 793 795 797 798 796 794 794 795 797 799 800 800 801 802 802 803 804 805 806 807 809 810 811 812 814 816 818 819 820 821 823 825 827 829 831 833 835 837 839 840 842 844 846 847 848
810 808 807 807 805 803 802 800 799 797 795 794 792 791 789 788 786 785 783 783 782 781 779 777 776 775 774 774 774 774 775 776 777 778 778 779 780 782 785 788 790 792 795 796 796 794 793 794 796 797 798 799 800 800 801 801 803 803 805 807 808 809 810 811 813 816 817 818 819 821 822 824 826 828 830 832 834 836 837 839 841 842 844 845 846
810 809 808 807 806 804 803 801 799 798 796 794 793 791 789 788 786 785 783 781 780 779 777 776 775 774 773 772 772 773 774 775 776 776 777 778 779 780 782 784 786 788 792 795 796 794 792 792 794 795 796 797 798 799 799 800 801 802 803 805 806 807 809 811 813 815 816 817 819 820 821 823 825 826 829 831 833 835 836 837 839 840 842 844 845
811 809 809 808 806 805 803 801 800 798 797 795 793 791 789 787 785 784 782 780 778 777 776 775 774 773 771 771 771 772 773 774 774 775 776 776 777 779 780 781 783 786 789 793 796 794 791 790 792 792 793 794 796 797 798 799 800 801 802 803 804 806 808 809 811 813 814 815 816 817 820 822 822 823 825 828 831 832 834 835 837 838 840 842 843
812 811 810 809 808 806 804 802 800 799 797 795 793 791 789 787 785 783 781 780 778 777 775 775 773 771 770 770 770 771 772 773 773 772 774 775 776 778 780 780 781 783 786 791 793 791 788 788 789 789 791 792 794 795 796 797 798 799 800 801 802 804 806 807 809 810 811 813 814 815 818 820 820 821 823 825 828 829 831 833 835 837 838 840 842
814 812 811 809 809 807 804 803 801 799 798 796 794 792 790 787 785 783 782 780 778 777 775 774 773 771 769 769 769 770 771 772 771 770 772 774 776 778 780 780 780 781 783 787 789 787 785 786 786 787 789 790 792 794 795 796 798 799 800 800 801 803 805 806 808 808 809 811 813 814 816 818 819 820 821 823 825 827 828 830 832 834 837 839 841
815 813 812 811 809 808 806 804 802 801 799 797 796 794 791 789 786 784 782 781 779 777 775 774 773 771 769 769 769 770 770 771 770 769 771 773 775 777 778 779 779 779 781 783 785 785 784 784 785 786 788 790 792 794 793 794 797 799 800 800 801 802 804 805 806 807 808 810 811 812 814 816 818 819 820 821 823 824 826 828 830 832 835 837 839
817 815 814 812 811 809 807 805 803 802 801 799 797 795 793 790 788 785 783 781 779 777 776 775 772 770 770 770 769 769 770 770 770 770 771 773 774 776 777 778 778 778 779 781 783 783 783 783 784 785 787 789 791 791 791 792 794 796 798 799 800 801 802 803 804 805 807 808 810 811 813 814 816 817 818 819 821 822 824 826 828 830 833 835 837
818 817 816 815 813 811 809 807 805 804 802 800 799 796 794 792 789 787 784 782 780 777 776 775 773 771 770 769 769 769 769 769 769 770 771 772 773 774 776 777 778 778 778 780 781 781 781 782 782 783 785 787 788 789 789 790 792 793 795 798 800 801 801 802 803 804 805 806 808 810 811 813 815 816 817 819 820 821 822 824 826 827 830 832 834
820 819 817 816 815 813 811 809 807 805 804 802 800 798 796 793 791 788 785 783 780 778 776 775 773 771 770 769 769 769 769 769 768 768 769 771 772 773 774 776 777 778 778 778 779 779 779 780 780 780 783 785 786 787 788 788 790 791 794 797 800 801 800 801 803 804 806 807 807 809 811 812 813 815 817 818 819 820 821 824 825 825 827 829 831
821 820 819 818 817 815 813 811 809 808 806 804 802 800 798 795 793 790 788 785 782 780 778 775 774 772 770 769 769 768 769 768 767 768 768 769 770 771 772 773 775 776 777 778 778 776 776 778 779 779 781 782 783 785 786 787 789 791 793 796 798 799 799 800 802 804 806 807 807 808 811 813 813 814 816 817 818 819 821 823 825 825 827 829 831
823 822 821 820 819 817 815 813 811 810 808 806 805 802 800 798 795 793 790 788 785 782 780 777 775 773 771 770 769 769 768 767 765 766 767 767 768 769 770 771 771 773 776 777 775 772 773 775 777 778 780 781 782 783 785 786 787 790 792 794 796 797 798 799 801 803 805 806 807 808 811 813 813 812 813 815 817 818 820 822 824 825 827 829 831
825 825 824 822 821 819 817 815 814 812 810 809 807 805 802 800 798 795 792 790 787 784 782 779 776 775 773 772 771 770 768 766 765 764 764 765 766 767 768 769 769 771 773 773 770 768 770 773 774 776 778 779 781 783 784 785 786 788 791 794 795 797 797 798 800 802 803 805 807 807 809 813 814 813 812 814 815 817 819 820 822 825 827 829 831
827 827 826 825 823 821 819 818 816 814 812 811 809 807 805 802 800 798 795 793 790 787 785 782 780 778 775 774 773 771 769 768 765 764 764 764 765 766 766 767 768 769 770 770 767 767 770 771 772 774 776 778 780 781 783 784 785 787 790 792 794 795 796 798 799 800 801 803 805 806 807 811 814 813 812 813 815 816 817 819 822 824 827 829 832
830 829 828 827 826 824 822 820 818 816 814 813 811 809 807 805 803 801 798 796 794 791 788 786 783 781 779 776 775 773 771 769 766 765 764 764 764 764 764 765 767 768 769 769 767 767 769 771 772 774 775 777 779 779 781 783 784 786 788 790 792 794 796 798 799 800 801 802 803 805 807 809 810 810 811 812 814 815 816 818 821 823 825 828 830
832 831 830 830 828 826 824 823 821 819 817 815 814 812 810 808 806 804 802 799 797 795 792 790 787 785 782 780 777 775 772 770 768 766 765 764 763 763 763 764 765 765 768 769 766 765 768 770 772 774 775 776 777 779 780 782 783 785 787 789 791 794 796 797 798 799 800 801 802 805 806 807 808 808 810 812 813 815 816 818 820 821 823 825 826
835 834 833 832 830 829 827 825 824 822 820 818 817 815 813 812 809 807 805 803 801 799 796 794 792 789 787 784 781 777 774 772 770 767 765 764 764 763 762 762 763 764 767 767 765 765 767 769 771 773 774 775 777 778 780 781 782 784 786 788 790 792 795 796 797 798 799 800 801 802 804 806 808 810 811 812 813 814 815 817 819 821 822 823 824
837 837 836 834 833 831 830 828 826 824 823 821 820 818 816 814 813 810 808 806 804 802 800 798 796 793 791 788 785 781 777 774 771 768 766 765 764 762 761 762 763 765 766 766 766 767 768 768 770 772 773 775 776 778 780 781 783 784 786 788 789 791 794 796 796 797 798 800 801 802 803 807 810 811 813 814 814 815 816 817 819 822 823 823 824
839 839 838 836 836 834 832 831 829 827 826 824 822 821 818 817 815 813 811 809 807 805 803 801 799 797 795 792 789 785 782 777 774 771 768 767 765 762 761 763 765 767 766 766 768 769 768 769 771 773 774 775 777 779 781 782 783 785 786 788 789 791 793 796 797 796 797 800 803 804 805 809 812 813 815 817 818 818 818 819 820 822 824 825 826
841 841 840 839 838 836 835 834 832 830 829 826 824 823 821 819 818 816 814 812 810 808 806 804 802 801 798 795 792 790 786 782 777 773 771 769 767 764 763 765 767 767 767 768 769 769 769 771 772 774 776 777 778 780 782 783 784 785 786 788 789 791 793 795 797 797 798 801 804 807 809 812 815 816 818 820 821 821 820 821 822 824 825 827 828
842 842 841 841 840 839 837 836 834 833 831 829 827 825 823 822 820 818 816 815 813 811 809 807 806 804 802 799 796 793 790 787 783 778 774 773 771 769 767 768 769 769 770 771 771 769 771 773 775 777 779 779 780 782 783 785 786 787 788 789 790 792 794 796 798 800 802 804 806 810 813 815 817 818 819 821 822 822 822 823 824 825 826 827 828
844 843 843 842 841 840 839 838 836 835 834 832 831 829 827 825 822 820 819 817 816 814 812 811 809 808 806 803 800 798 795 792 788 784 781 779 776 773 772 772 772 772 772 773 773 772 773 775 777 780 782 782 783 784 785 787 788 789 790 791 792 794 796 797 800 802 804 806 808 811 815 817 818 820 821 823 824 824 824 825 826 827 828 829 830
847 846 845 844 843 842 841 840 839 837 836 834 833 831 830 828 825 823 821 819 818 817 815 814 813 812 810 808 805 803 800 796 793 790 788 785 781 779 777 776 776 776 776 776 776 776 776 777 779 782 784 785 785 785 786 788 790 791 792 793 795 796 797 799 801 803 805 807 810 813 816 818 819 821 823 824 825 825 826 826 827 828 829 830 832
849 848 847 846 845 844 843 843 842 841 838 836 835 833 833 831 829 827 824 822 821 820 819 818 816 816 815 813 810 808 804 801 798 795 793 790 786 784 783 782 782 782 780 779 780 781 781 781 781 783 786 788 787 787 789 791 792 794 794 795 797 799 800 801 803 805 807 810 812 815 817 819 821 822 824 825 826 827 827 828 829 830 831 832 834
851 850 849 849 848 847 846 845 844 843 842 840 838 837 836 835 834 832 829 827 825 824 823 822 820 819 818 816 815 812 809 806 803 800 797 795 792 791 791 790 789 787 785 784 785 786 786 785 783 785 789 792 790 789 791 794 795 796 797 798 800 802 803 804 806 808 810 812 814 816 819 820 822 824 825 826 827 828 829 830 831 832 833 834 836
852 852 851 850 849 849 848 847 846 845 844 843 842 840 840 839 838 836 834 832 830 829 828 826 824 823 821 820 818 816 813 810 807 805 803 801 800 798 797 796 795 793 791 791 790 790 789 788 786 787 792 796 794 792 793 796 797 798 800 802 803 805 807 808 809 811 812 815 817 818 820 822 824 825 826 827 828 829 830 831 832 833 834 836 837
853 853 853 852 851 850 850 848 847 847 847 846 845 843 842 842 841 839 838 837 835 834 833 831 829 827 826 824 822 820 817 814 812 810 809 808 806 804 802 801 800 799 797 796 795 794 793 791 790 791 794 798 798 797 797 798 800 801 804 805 807 810 811 811 812 813 815 817 819 821 822 824 825 826 827 829 830 831 832 833 834 835 835 836 837
854 854 854 853 853 852 851 850 849 848 848 848 847 846 845 844 844 843 841 840 838 837 836 835 833 831 829 828 825 823 821 819 817 816 815 814 812 809 807 806 805 804 803 801 801 800 798 796 795 796 797 799 801 802 802 802 803 805 808 809 811 813 813 813 814 816 818 820 822 823 825 826 827 828 829 830 831 832 833 834 835 835 836 836 836
854 854 854 854 854 853 852 851 850 849 849 849 848 848 847 846 846 845 844 842 840 839 837 836 835 833 831 830 828 826 825 823 821 820 818 817 816 814 813 811 810 809 808 807 806 805 804 802 802 802 802 803 805 807 807 808 808 809 811 813 814 815 816 816 817 819 821 822 824 825 826 827 828 829 830 831 832 833 834 834 835 835 836 836 836
854 854 854 854 854 853 852 852 851 851 850 850 849 849 848 848 847 846 845 844 843 841 839 837 836 834 833 832 830 829 827 825 823 822 820 819 819 818 817 816 814 813 812 811 810 810 809 809 809 809 809 810 811 812 812 813 813 814 815 816 817 818 819 820 821 822 823 824 825 827 828 828 829 830 831 832 833 834 834 835 835 836 835 835 836
857 856 855 855 855 854 853 853 852 852 851 851 851 850 849 848 848 847 846 845 844 843 841 839 837 836 834 833 832 830 828 826 825 824 822 821 821 820 819 818 818 817 816 815 815 814 814 814 814 814 815 815 816 816 816 817 818 818 819 819 820 821 822 822 823 824 825 826 827 828 829 829 830 831 832 833 833 834 835 835 835 835 834 834 836
860 859 858 857 855 855 854 853 853 852 852 852 852 851 850 849 848 847 846 846 845 844 842 840 839 838 836 835 834 832 830 828 827 825 824 824 823 822 822 821 820 820 820 819 819 819 818 818 818 819 819 819 819 820 820 820 821 821 822 822 823 823 824 825 825 826 827 828 829 829 830 831 831 832 833 833 834 835 835 836 836 836 836 836 838
861 861 860 859 857 856 856 855 854 854 853 853 852 852 852 851 850 849 848 847 846 845 843 841 840 839 838 837 836 834 832 831 829 827 826 826 825 824 824 823 823 822 822 822 822 822 822 822 822 822 823 823 823 823 823 823 823 824 824 824 825 825 826 827 827 828 829 830 830 831 832 832 833 833 834 834 835 836 836 836 837 837 838 838 838
861 861 861 860 859 858 857 857 857 856 855 853 852 852 852 852 851 850 849 848 847 846 844 843 842 841 839 838 837 836 834 833 832 830 829 828 827 826 825 825 825 824 824 825 825 825 825 825 825 825 825 825 825 825 825 825 826 826 826 827 827 828 828 829 830 830 831 831 832 833 833 833 834 834 834 835 836 836 837 837 838 838 839 839 838
862 862 862 861 860 859 858 858 858 858 856 855 854 854 853 853 853 852 850 850 849 848 846 845 844 842 841 840 839 837 836 835 834 833 831 830 829 828 827 827 827 827 827 827 827 827 827 827 827 827 827 827 827 827 827 827 828 828 828 829 829 830 830 831 832 832 832 833 833 834 834 834 835 835 835 836 837 837 838 839 839 839 840 840 840
864 864 864 863 861 860 859 859 859 859 857 856 855 855 854 854 854 853 852 851 851 849 848 847 846 845 843 842 841 839 838 837 836 835 834 832 831 830 829 829 829 829 829 829 829 829 829 829 829 829 829 829 829 829 829 829 829 830 830 831 831 832 832 833 833 833 834 834 835 835 835 835 836 836 837 837 838 838 839 840 840 841 842 842 842
865 866 866 865 863 861 860 860 859 859 858 857 856 856 856 855 854 853 853 852 852 850 849 849 849 847 846 844 843 841 840 839 838 837 836 834 833 832 832 832 831 831 831 831 831 831 831 830 831 831 831 831 831 831 831 831 831 831 832 832 833 833 834 834 835 835 835 836 836 836 837 837 837 837 837 838 838 839 840 840 841 842 843 843 843
864 865 866 866 864 862 860 860 860 860 859 857 856 857 857 856 855 854 853 852 852 851 850 850 850 849 848 847 845 843 841 840 840 839 839 838 837 836 835 834 834 833 833 833 832 832 832 832 832 832 832 832 833 833 833 833 833 833 834 834 834 835 836 836 836 836 837 837 837 837 838 838 838 838 838 839 839 840 841 841 842 842 843 843 844
864 864 865 865 864 862 861 861 861 861 860 859 858 857 857 857 856 855 854 854 853 852 851 851 850 851 850 849 847 845 843 842 842 842 842 841 840 839 838 837 836 836 835 835 834 834 834 834 834 834 834 834 834 835 835 835 835 835 835 836 836 836 837 837 837 838 838 838 838 838 839 839 839 839 839 840 841 841 842 842 843 843 844 844 845
864 864 865 864 863 862 862 861 861 861 860 859 859 858 858 858 857 856 855 855 854 853 852 851 851 851 851 850 848 846 844 843 843 844 843 843 843 842 841 840 839 838 838 837 837 836 836 836 836 836 836 836 836 836 836 836 836 836 836 837 837 838 838 838 839 839 839 839 839 839 840 840 840 840 841 841 842 842 842 843 843 844 844 845 845
864 864 864 864 862 862 862 862 861 860 860 860 860 859 859 858 857 857 856 855 854 854 853 852 851 851 851 850 849 847 846 845 845 845 844 845 844 844 843 842 841 841 840 839 839 839 838 838 838 837 837 838 838 838 838 837 837 837 838 838 838 839 839 840 840 840 840 841 841 841 841 841 841 842 842 842 842 842 842 843 844 844 845 845 845
866 865 865 865 864 863 863 862 862 860 860 861 861 860 859 858 857 856 856 855 855 854 853 852 852 851 851 850 849 848 847 847 846 845 845 845 845 845 845 844 843 843 842 841 841 841 840 840 839 839 839 839 839 838 838 838 838 839 839 840 840 840 841 841 841 842 842 842 842 843 843 843 843 843 843 843 843 843 844 844 845 845 845 845 845
867 866 866 866 865 864 864 864 863 862 862 862 861 860 859 858 857 856 856 855 855 854 854 853 852 851 851 850 849 848 848 848 847 846 846 845 846 846 846 846 845 845 844 843 843 842 842 842 842 841 841 841 840 840 840 840 840 840 841 841 842 842 842 842 842 843 843 843 843 844 843 843 843 843 843 844 844 845 845 845 846 845 845 845 845
868 867 867 866 866 866 865 865 864 863 862 861 861 860 859 858 858 857 856 856 855 855 854 854 853 852 851 850 850 850 849 848 848 847 847 846 846 846 846 846 846 846 846 845 845 844 844 843 843 843 843 843 843 842 842 842 842 841 841 842 843 843 843 844 844 844 844 844 844 844 844 844 844 844 844 845 845 845 845 845 845 845 845 845 845
869 868 868 867 867 866 866 865 865 864 862 862 861 860 859 858 858 857 857 857 856 855 855 854 853 852 851 851 850 850 850 849 848 848 848 847 847 847 847 847 847 847 847 847 846 845 845 845 845 845 845 844 844 844 844 844 844 844 844 844 844 844 845 845 845 846 845 845 844 844 845 845 845 845 845 846 846 845 845 845 845 846 846 846 846
869 869 868 868 867 867 866 866 865 864 863 863 862 861 860 859 858 858 857 857 857 856 855 854 853 852 851 851 850 850 850 850 849 848 848 848 847 848 848 847 847 847 847 847 847 847 847 846 846 846 846 845 846 846 846 845 846 846 846 845 845 845 845 846 846 846 846 846 846 846 846 846 846 846 846 846 845 845 845 845 846 846 846 846 846
869 869 869 868 868 867 867 866 866 865 864 863 863 862 862 860 859 858 857 857 856 856 855 854 853 852 850 850 850 850 850 850 849 849 849 848 848 848 848 848 847 847 847 847 848 848 848 847 847 847 847 846 846 846 846 846 847 846 846 845 845 846 846 846 846 846 846 846 847 847 847 847 847 846 846 846 846 845 845 845 845 846 846 846 847
870 869 869 869 868 867 867 866 865 865 865 864 863 862 862 861 859 858 858 857 856 855 854 854 853 852 851 850 850 850 849 849 849 849 849 849 848 848 849 849 848 848 848 848 848 848 848 848 848 848 848 848 847 847 847 847 847 847 846 846 846 846 847 847 847 847 847 847 847 847 847 847 847 846 846 846 846 846 846 846 846 846 846 847 847
870 870 869 869 868 867 867 866 865 864 864 865 863 862 862 862 860 859 859 858 857 855 854 854 854 853 852 851 850 849 849 850 850 849 849 849 849 849 849 849 849 848 848 848 848 848 848 848 848 848 848 848 848 848 848 848 847 847 846 846 847 847 847 847 847 847 847 846 846 846 847 847 847 847 847 846 846 846 846 846 846 847 847 847 847
870 869 869 869 869 867 867 866 866 864 864 864 863 862 862 863 862 860 860 860 858 856 855 855 854 853 853 852 851 850 850 850 850 850 850 850 849 849 849 850 849 849 849 848 848 848 849 849 849 849 849 849 848 849 849 848 847 847 847 847 847 847 847 847 847 846 846 846 846 846 846 847 847 847 847 846 846 846 846 846 846 846 846 847 847
Wind_Speed
15 16 15 15 16 17 17 16 16 17 16 15 13 12 12 12 13 14 14 17 21 20 18 16 16 17 17 16 17 16 16 17 18 18 19 20 18 17 16 14 15 18 21 21 19 17 17 17 17 17 16 15 15 14 15 16 16 16 15 13 13 12 13 12 9 7 8 14 17 15 18 19 16 17 17 15 18 18 13 14 15 12 11 11 11
17 17 16 16 17 17 17 16 16 16 17 16 14 13 13 13 13 14 15 17 18 18 18 17 15 15 15 16 16 15 14 16 18 19 21 22 20 18 16 14 15 18 21 21 18 18 18 18 17 18 18 17 16 15 16 16 16 16 16 15 15 14 15 14 11 9 8 12 16 15 18 19 16 17 17 15 18 19 15 14 14 13 13 13 12
17 16 17 17 17 16 16 16 16 17 17 16 15 15 15 15 14 15 16 17 15 14 17 17 15 14 15 16 14 11 12 15 16 18 21 22 21 20 18 18 18 20 22 21 18 18 20 20 18 18 17 17 16 15 16 18 17 17 17 17 16 15 16 14 12 14 12 12 15 15 16 17 15 16 16 15 17 19 16 14 14 14 13 14 13
16 16 17 17 16 16 16 16 16 17 17 17 17 17 17 17 16 15 16 18 15 13 14 15 15 16 17 16 14 11 12 14 15 17 18 18 20 21 20 21 21 21 21 21 18 18 18 18 17 17 16 17 18 16 18 22 20 17 18 17 15 15 17 15 13 16 15 14 15 16 16 16 16 17 16 15 16 18 16 15 14 14 13 13 14
17 16 17 17 17 17 17 16 16 17 17 17 18 18 18 18 18 17 17 18 17 15 15 14 15 18 18 16 13 13 14 15 15 17 16 15 18 20 19 21 22 21 20 21 22 21 19 16 17 17 17 17 18 18 19 22 21 20 19 17 16 16 17 15 15 17 16 15 16 15 16 15 15 16 17 16 16 16 16 15 14 13 13 13 12
17 16 17 18 18 18 18 17 17 18 18 18 19 19 19 19 20 19 18 18 18 18 16 15 15 18 18 16 14 16 19 18 16 16 16 15 19 20 18 20 21 20 20 23 26 24 19 17 18 19 20 19 19 19 20 21 21 21 18 17 17 17 16 15 14 17 16 15 15 15 15 16 14 14 17 17 16 16 15 14 14 13 14 13 12
17 17 17 17 17 18 18 18 18 18 18 19 19 19 20 19 20 19 19 18 18 19 18 17 16 17 17 17 17 17 18 17 15 15 15 15 18 18 16 18 20 19 19 22 24 20 15 17 20 19 20 22 19 18 18 16 14 11 6 8 12 13 15 15 15 15 17 16 15 15 15 16 14 14 16 17 16 16 15 14 14 14 14 13 13
17 17 17 18 18 19 19 19 19 19 19 19 18 19 20 20 20 20 20 19 18 18 19 19 18 18 16 17 17 16 15 15 14 15 14 13 15 15 15 17 19 19 19 20 20 16 14 17 19 16 17 20 18 15 15 13 10 7 3 6 14 14 14 17 16 14 16 16 15 15 15 16 15 14 15 16 16 16 16 15 14 14 14 14 13
17 17 17 19 19 20 20 20 20 20 20 19 19 19 20 20 21 22 22 21 19 18 18 18 20 19 17 14 14 15 15 15 15 14 12 12 13 14 15 18 20 20 22 21 18 18 18 17 17 17 17 19 18 17 18 17 14 14 12 13 19 19 16 17 17 15 16 17 16 16 15 16 16 15 15 16 15 15 15 15 15 15 15 14 14
16 17 17 18 19 20 20 20 21 21 21 20 20 20 20 20 21 22 23 23 21 19 18 18 18 18 17 15 15 14 14 15 15 13 13 13 13 13 13 16 19 19 21 21 18 20 21 18 17 19 18 17 16 16 19 18 15 16 15 14 18 21 19 17 17 17 16 14 15 16 15 15 16 16 15 15 14 14 15 14 14 15 15 14 13
16 17 17 18 19 20 20 21 21 21 22 21 20 21 21 21 21 22 23 24 23 21 20 20 19 16 15 16 16 12 10 14 16 16 16 16 14 12 11 13 16 18 20 21 20 20 20 17 18 19 18 17 16 14 15 16 15 16 14 14 18 21 19 17 14 12 11 11 13 12 11 13 16 17 16 15 15 14 14 14 13 13 13 13 11
16 17 18 18 19 20 20 21 21 22 22 22 21 21 21 21 21 21 22 24 24 23 22 21 20 20 17 16 15 12 10 14 16 16 17 17 16 16 16 16 16 17 22 26 25 22 19 16 17 18 17 18 18 15 15 16 16 14 13 14 18 18 19 19 14 9 10 13 14 10 8 10 15 19 18 16 16 14 13 14 14 12 12 11 8
16 17 18 18 19 19 20 20 21 22 22 22 22 22 21 22 22 22 21 22 22 23 24 23 22 21 20 18 17 14 9 11 13 13 14 15 16 17 18 19 18 18 23 26 23 19 17 16 17 16 13 15 16 15 17 18 18 16 15 16 17 14 14 18 17 12 11 14 14 13 12 14 16 18 19 18 17 15 14 14 14 12 11 8 5
17 18 18 18 19 19 20 20 20 21 22 22 22 22 22 22 22 22 21 21 22 23 24 25 24 23 21 19 18 15 10 10 13 14 14 14 16 17 19 20 19 18 20 19 15 12 12 13 14 11 10 13 16 16 16 17 18 18 15 13 13 12 11 14 16 14 11 10 10 11 13 15 18 17 18 18 17 16 15 14 13 11 8 5 5
18 18 18 19 19 19 19 19 19 21 21 22 22 22 22 22 22 21 21 21 22 22 22 24 24 23 22 20 18 16 14 14 15 16 17 17 17 18 19 20 18 17 18 16 12 11 12 12 11 10 9 11 15 16 15 15 17 17 14 11 11 11 11 14 15 13 10 8 9 11 12 15 16 14 15 16 14 14 13 12 12 12 9 9 10
18 19 19 19 19 20 19 18 19 20 21 21 22 22 22 22 21 21 20 20 21 21 21 21 22 22 22 22 19 17 16 16 15 16 17 18 19 19 20 18 15 15 18 15 10 9 10 11 11 12 11 11 12 16 15 14 14 15 15 14 12 10 9 11 13 13 11 9 10 10 11 16 18 18 17 15 13 13 13 11 10 10 10 10 11
18 19 20 20 19 19 19 18 19 20 20 21 21 21 21 21 21 20 20 20 21 21 21 20 20 20 22 24 23 20 19 18 14 13 14 15 17 17 17 15 11 13 18 15 8 7 7 8 9 10 9 8 10 14 16 15 14 14 16 16 15 13 13 13 12 12 12 13 14 15 16 18 20 20 19 18 16 13 11 10 8 8 9 9 9
18 18 18 19 19 20 19 19 19 19 20 20 21 21 21 21 20 20 19 19 20 20 21 20 20 22 22 24 25 23 22 21 15 9 8 8 8 9 9 9 8 11 12 5 5 5 5 7 8 7 6 6 7 11 15 14 13 15 16 18 18 18 19 19 19 17 17 18 19 20 19 17 16 16 16 16 16 13 10 7 6 7 8 8 6
17 17 17 18 19 20 20 19 19 19 19 20 20 20 21 21 20 20 19 19 19 19 21 21 22 23 23 23 27 28 26 24 20 12 6 4 1 2 3 2 2 0 3 9 11 8 6 6 6 6 6 6 6 9 13 13 12 15 16 17 19 20 19 19 20 20 18 17 17 17 16 15 12 12 11 10 10 12 13 11 7 3 1 2 3
16 16 16 17 18 20 20 20 19 18 18 18 18 18 19 19 20 20 20 20 19 19 20 21 21 22 22 22 26 31 31 28 23 16 10 8 6 6 7 9 8 8 9 9 8 7 8 8 8 6 5 6 8 11 12 11 11 14 15 15 17 19 18 18 18 19 18 18 17 16 16 13 10 10 10 9 8 9 10 11 12 9 7 5 2
15 15 15 16 17 19 20 19 18 18 18 18 17 17 18 18 19 19 19 19 19 20 20 21 21 22 22 23 25 29 32 33 29 21 14 12 10 8 8 7 6 6 8 8 7 9 10 10 11 9 8 11 13 13 13 12 12 13 14 16 19 21 20 19 19 19 20 20 19 17 16 15 13 13 13 12 12 12 9 9 11 11 11 10 6
15 15 15 15 15 17 18 18 18 18 19 19 19 19 19 18 18 19 19 18 19 20 20 20 21 21 22 25 28 30 32 34 34 29 21 16 11 8 7 5 3 4 6 8 10 12 13 13 13 12 11 14 14 13 13 13 12 12 14 18 21 22 21 20 18 18 18 18 18 17 15 15 15 15 14 13 13 12 10 10 9 9 12 14 13
15 15 15 15 15 16 17 18 19 19 19 19 20 21 20 19 19 19 20 19 19 20 20 20 20 21 22 24 28 31 32 32 33 33 29 22 16 11 8 6 5 6 9 13 15 17 17 16 15 12 11 13 14 14 13 13 13 14 16 18 20 21 20 19 17 17 17 17 17 17 15 14 14 14 13 13 12 12 11 10 9 9 10 12 15
14 15 16 16 16 16 17 19 20 19 19 19 20 21 22 21 20 20 20 20 20 20 20 20 20 21 21 22 23 27 31 31 30 31 31 28 25 20 15 12 11 12 16 19 20 20 20 18 17 15 13 13 15 16 17 18 19 20 20 21 21 20 20 20 19 19 20 19 18 17 15 14 14 12 11 11 10 11 12 11 11 11 9 10 13
14 14 15 16 16 16 16 18 20 20 20 20 20 21 22 23 22 21 20 20 20 20 20 21 20 20 21 21 21 25 31 32 29 28 28 29 29 27 23 20 18 18 20 22 21 19 19 19 19 18 18 17 19 20 21 20 20 20 20 21 20 18 19 19 19 20 21 20 18 16 14 13 13 11 10 10 10 10 11 12 12 11 9 9 10
14 14 14 14 15 16 16 16 18 20 21 21 21 21 22 23 23 23 22 21 21 20 19 21 20 20 21 21 20 23 28 31 30 29 27 26 26 25 23 22 21 21 22 22 20 19 19 18 19 19 19 19 22 23 22 20 19 19 19 19 18 18 17 18 18 19 20 19 17 16 14 13 13 12 11 11 10 9 10 11 11 9 9 11 12
14 14 14 14 14 15 16 15 15 16 18 20 21 21 21 22 22 22 22 21 21 21 19 19 19 19 20 20 20 21 26 29 29 29 29 26 24 22 22 21 21 21 21 21 21 21 21 21 22 21 20 19 22 23 22 20 19 19 18 18 19 18 17 16 17 17 17 17 16 16 15 14 13 12 11 9 8 7 6 6 6 5 5 8 10
14 14 14 14 14 14 15 16 15 14 15 18 20 20 19 18 19 20 21 21 20 20 19 18 18 17 18 19 19 19 23 27 26 25 26 25 23 22 22 21 21 20 20 20 20 20 21 23 24 24 22 20 21 23 23 22 21 21 20 19 18 17 16 15 15 15 15 16 16 16 15 13 12 11 9 8 7 6 4 3 5 5 4 5 6
13 14 13 14 14 14 14 15 16 14 12 14 17 19 19 18 16 17 20 23 24 22 20 19 18 16 15 16 18 17 19 23 23 20 19 20 21 21 21 20 19 18 18 18 18 18 21 24 24 24 24 23 22 23 22 22 21 20 19 18 18 16 16 16 16 16 15 15 14 13 11 10 10 9 8 8 7 5 4 4 5 5 5 5 6
12 13 13 13 13 13 13 14 15 14 12 11 12 14 16 18 17 16 18 22 25 26 25 23 21 19 14 14 16 17 16 18 20 18 16 15 16 17 18 18 17 15 13 14 16 18 20 22 22 22 23 23 22 21 20 20 20 19 17 16 14 14 14 15 15 15 14 13 12 10 8 8 8 8 8 7 6 5 5 5 4 5 6 5 5
13 13 14 14 13 12 13 13 13 13 14 13 10 8 9 12 14 15 16 18 21 24 26 26 26 24 20 16 15 16 16 15 16 17 17 15 14 14 15 15 15 15 14 14 16 18 19 20 20 20 20 20 19 18 17 16 15 14 13 12 10 10 11 12 12 12 12 13 13 11 10 10 9 9 8 7 6 6 5 5 5 6 7 7 7
15 14 13 13 13 13 14 14 13 13 13 14 14 12 9 8 8 8 9 12 15 20 24 27 27 26 25 23 21 20 19 16 14 14 15 16 15 14 13 13 12 12 13 14 16 16 16 17 18 17 17 17 16 15 14 13 12 11 11 10 11 11 11 11 11 11 11 12 12 11 11 10 10 9 8 7 7 6 5 4 3 2 3 5 6
14 14 13 12 13 14 14 14 14 14 14 13 13 13 13 13 11 8 6 6 7 11 17 24 27 27 28 27 26 25 23 21 18 14 12 12 14 13 13 13 12 9 9 11 13 13 13 14 14 13 13 13 12 11 10 10 10 10 10 11 11 12 11 11 11 11 11 11 10 10 10 10 10 9 7 6 7 6 5 4 4 5 7 8 7
10 12 13 12 12 14 14 15 16 15 14 14 13 12 12 13 14 13 11 10 9 8 10 16 22 25 27 27 25 25 24 24 23 20 15 12 12 12 12 13 12 11 10 11 12 11 10 11 11 10 10 9 8 8 8 8 8 9 10 11 11 11 11 11 11 11 10 10 9 9 9 8 8 8 8 7 7 6 5 4 4 5 5 5 6
9 10 11 11 11 12 13 15 16 15 14 15 14 13 12 12 13 14 15 15 15 13 12 13 16 20 23 24 23 23 23 23 23 22 19 16 14 13 13 13 13 12 12 12 12 11 11 11 10 9 8 8 8 8 8 8 9 9 10 10 10 10 10 10 10 9 9 9 9 8 7 6 7 7 7 7 7 6 5 5 4 4 4 2 0
11 11 10 11 11 11 11 13 15 14 14 15 15 14 13 12 13 14 14 15 15 16 16 15 16 18 21 23 21 19 20 21 21 20 19 18 15 13 13 13 13 12 11 11 11 11 11 11 9 8 8 7 7 8 8 8 9 8 9 9 9 9 8 8 8 8 8 8 8 7 6 6 6 6 7 7 7 7 7 6 6 5 4 3 4
10 11 10 10 11 11 11 12 13 12 12 14 15 14 13 13 12 13 14 15 15 16 16 16 17 18 20 21 19 17 17 19 19 19 19 18 16 15 13 12 11 11 10 10 10 10 10 9 8 7 7 7 7 7 8 8 7 8 8 8 7 6 7 7 7 7 8 8 7 6 6 6 6 6 7 7 6 7 7 6 6 5 4 3 3
9 10 9 8 10 10 10 11 11 11 12 13 14 15 14 13 13 13 13 14 15 15 15 16 16 18 21 21 18 16 16 17 17 18 18 17 16 15 14 12 11 11 10 9 9 8 8 8 7 7 7 7 7 7 7 7 7 7 7 7 6 7 8 8 7 7 7 7 7 6 6 6 5 5 6 6 6 7 6 5 5 6 5 2 1
10 11 10 9 9 9 9 9 10 11 12 12 13 13 13 13 13 14 14 14 14 15 15 15 14 16 20 21 18 15 15 16 16 16 16 16 15 14 13 12 11 11 10 10 9 9 9 8 8 7 7 7 7 7 7 7 7 7 7 8 7 7 7 6 6 6 6 6 6 5 5 5 5 5 5 6 6 6 5 5 4 4 4 3 3
7 8 9 8 8 8 9 9 9 10 10 11 12 12 13 13 13 13 14 14 14 14 15 14 13 13 16 18 17 15 15 15 15 15 15 14 13 13 12 12 12 11 10 10 10 9 9 9 8 8 8 7 7 6 6 6 6 7 7 6 6 6 6 5 5 5 5 5 5 5 4 5 5 5 5 5 6 5 5 5 4 4 3 3 2
7 7 6 5 5 7 8 9 9 8 8 9 11 11 12 12 12 13 13 14 14 14 14 14 13 11 12 15 16 15 15 15 15 14 13 13 13 12 11 11 11 11 10 10 9 9 8 8 8 8 8 7 7 7 6 6 6 5 5 5 5 6 5 5 5 5 5 5 5 5 5 5 5 5 5 5 4 4 3 3 4 3 3 2 2
7 8 8 6 6 7 8 8 8 7 8 9 11 11 10 10 11 11 12 12 12 13 13 13 13 11 10 13 15 14 14 15 15 14 13 12 12 11 11 10 10 9 9 8 8 8 7 7 7 7 7 7 7 6 5 4 5 5 5 5 5 5 5 6 6 5 5 6 6 6 6 6 5 5 5 3 2 2 2 2 2 3 2 2 1
6 7 7 7 8 8 8 8 8 9 9 9 8 9 10 10 10 11 10 11 11 12 12 12 13 11 10 11 13 14 13 14 14 14 13 12 11 10 10 9 9 8 8 7 7 7 7 6 7 7 6 6 7 8 7 6 5 5 5 5 5 4 4 5 4 4 4 5 5 4 4 3 3 3 3 3 3 3 2 2 1 1 2 2 2
6 7 6 6 7 7 7 8 8 9 9 7 7 8 9 10 10 10 10 10 11 11 11 11 12 12 11 11 13 13 13 13 13 14 13 12 11 9 8 8 7 7 7 6 6 6 6 5 6 6 6 5 7 9 9 8 6 5 5 4 4 4 5 5 5 5 5 5 4 3 2 3 3 3 3 3 2 1 0 1 1 1 0 1 2
6 6 6 6 7 7 7 8 8 8 8 8 8 9 9 9 9 10 10 10 10 10 9 9 10 11 11 11 11 12 12 12 12 13 13 12 12 11 8 7 6 6 5 5 5 6 6 5 5 5 5 5 5 6 6 6 6 7 7 6 5 5 6 6 6 6 5 5 5 3 2 3 3 4 4 2 1 2 1 1 1 0 1 1 2
5 6 6 6 6 6 7 8 8 8 8 9 9 10 10 9 9 10 10 10 10 10 9 9 9 9 9 10 10 10 10 11 11 11 11 11 11 10 8 7 6 5 4 4 4 4 5 5 5 4 5 5 5 4 4 4 4 5 6 6 6 6 6 5 5 5 4 6 8 7 5 4 4 4 4 3 3 3 3 2 1 0 1 1 1
4 5 5 5 6 6 6 6 7 7 8 9 9 10 11 10 9 10 9 9 9 10 10 10 9 8 8 8 9 9 9 9 10 10 9 10 10 8 7 6 6 5 5 3 2 3 4 4 3 3 4 4 4 4 4 4 3 3 4 3 3 4 4 4 5 5 4 4 6 7 6 6 5 5 4 3 3 3 2 1 1 1 1 2 1
3 4 4 5 5 5 6 6 6 6 8 8 8 9 10 10 10 10 10 9 9 9 10 10 10 10 8 8 8 8 8 8 9 8 8 9 9 7 5 5 5 5 5 4 2 2 3 3 3 3 2 2 3 3 3 3 3 3 2 0 1 2 2 3 2 1 1 3 5 5 5 4 5 5 4 4 4 4 3 2 1 0 1 2 2
3 4 4 4 5 5 5 6 6 7 8 8 8 8 9 10 11 11 11 11 11 10 10 10 10 11 10 9 9 8 7 7 8 8 7 8 8 7 5 5 5 4 4 4 3 1 1 2 3 2 2 2 2 2 2 2 2 1 2 4 3 2 2 2 2 2 1 1 3 4 5 4 4 5 4 3 3 3 3 3 3 2 1 2 3
3 3 3 4 5 5 4 5 6 7 7 8 9 9 9 10 11 11 11 12 12 11 11 11 11 10 11 10 10 8 7 7 8 8 8 7 8 7 5 4 4 4 4 4 3 2 1 2 3 2 2 3 2 2 2 1 0 3 5 5 3 2 3 3 3 3 3 2 2 3 4 5 5 4 4 3 2 3 3 3 3 3 2 3 4
3 3 3 3 5 5 4 5 6 7 6 7 8 8 8 9 10 10 10 11 12 11 11 12 12 11 11 11 10 9 7 7 7 8 8 7 7 6 5 4 4 4 3 3 3 3 2 2 2 2 2 3 3 3 2 2 4 6 6 4 3 3 3 3 4 4 5 5 5 4 3 5 5 4 4 4 3 3 3 3 3 4 4 4 4
Wind_Direction
4 359 356 352 349 346 344 342 339 337 336 336 335 326 314 305 297 290 285 279 272 267 264 261 258 258 255 246 237 224 211 211 210 208 215 217 215 220 223 227 229 226 225 220 208 201 201 199 203 208 207 207 208 206 208 210 212 217 223 225 216 203 199 192 178 191 193 175 172 175 176 175 175 176 169 162 170 172 165 175 188 190 182 188 195
7 2 358 354 351 349 348 346 343 340 337 336 337 331 320 312 305 299 291 282 277 275 274 269 264 260 257 252 242 221 207 213 215 212 216 219 217 218 216 221 232 234 233 226 207 199 205 201 200 208 207 206 206 202 204 207 211 219 220 217 216 209 208 201 172 173 193 177 174 175 172 174 176 175 173 164 168 175 173 174 184 182 177 186 196
10 6 3 359 356 354 351 350 347 345 342 338 335 329 321 315 308 299 293 288 285 286 287 286 282 272 263 260 255 235 213 216 219 214 214 215 215 215 214 217 227 233 235 235 220 205 208 206 203 205 201 202 207 204 202 205 210 220 219 214 215 208 207 208 176 169 182 176 176 177 171 176 178 172 175 170 168 178 179 173 177 182 183 186 190
10 8 7 3 1 360 357 354 351 348 346 341 336 329 322 318 312 304 300 298 295 295 293 290 285 274 263 259 260 253 228 215 215 213 211 211 214 217 217 217 223 228 232 238 232 213 206 204 202 204 199 201 211 209 207 211 212 219 223 218 213 204 204 206 179 166 172 174 180 180 171 177 181 174 177 176 171 180 185 179 181 186 188 187 188
9 8 8 5 4 2 1 360 356 351 346 341 338 333 326 322 318 311 307 305 301 297 291 284 281 276 270 264 263 262 246 224 215 213 210 212 219 220 220 222 227 229 230 237 235 219 208 205 203 205 205 206 211 209 209 214 215 216 217 211 204 203 206 203 180 168 173 179 183 180 169 178 187 180 181 180 175 181 186 183 186 187 184 187 189
7 7 7 6 5 3 3 2 358 354 349 343 340 337 331 326 321 314 310 307 304 300 295 287 280 278 277 270 263 265 259 242 224 217 214 216 222 222 222 225 227 226 230 239 236 220 207 207 208 205 204 206 212 214 212 214 215 214 210 204 202 197 194 199 192 179 175 178 182 175 168 178 185 177 178 179 176 181 184 182 185 186 183 185 185
6 6 6 6 6 6 5 2 358 356 352 346 342 340 336 331 326 320 312 307 304 303 300 296 287 279 276 272 264 263 264 256 239 224 215 214 220 220 221 228 226 220 225 237 237 224 207 210 215 212 209 210 215 216 214 217 223 226 212 199 205 197 185 193 201 187 176 177 180 175 170 177 179 175 178 179 176 180 181 179 183 185 183 187 190
8 7 4 5 7 7 5 1 358 356 353 349 346 343 340 337 333 330 324 317 308 302 300 298 293 285 278 275 273 269 268 266 255 237 220 214 219 217 216 227 228 219 220 233 237 227 213 215 217 216 215 218 222 220 216 219 222 227 233 193 200 207 196 190 195 192 180 177 181 180 176 176 178 179 180 179 180 183 181 180 185 187 184 189 198
7 8 5 4 4 4 4 1 359 358 355 353 350 347 345 342 340 339 339 335 325 316 309 301 294 290 284 278 276 273 268 264 260 251 234 220 219 217 216 226 231 225 221 227 231 223 217 216 216 219 219 216 216 215 216 221 218 210 208 195 195 203 200 187 190 195 190 185 184 185 183 178 179 184 184 182 184 185 181 180 184 188 187 189 200
9 8 7 6 3 2 3 2 1 360 358 356 353 351 350 348 347 346 346 346 342 336 332 321 306 294 285 279 276 275 271 262 256 253 244 235 229 222 220 226 232 233 228 224 223 220 218 214 214 223 227 215 206 207 214 223 224 212 204 200 200 201 197 193 194 196 198 195 186 185 190 186 182 186 188 185 187 188 183 184 190 189 186 189 195
10 8 7 7 4 4 4 3 3 2 0 359 357 355 354 353 352 351 350 353 353 350 348 343 333 321 305 290 282 276 274 268 261 250 242 242 236 225 227 232 231 235 237 230 222 218 215 211 214 224 230 222 211 208 211 214 215 211 203 198 201 200 197 201 201 189 191 200 192 189 200 197 186 187 190 186 188 193 184 183 197 197 189 199 198
11 10 8 7 6 7 6 6 6 5 3 3 0 359 359 358 357 356 354 355 357 357 356 352 345 340 332 317 306 296 275 263 261 250 238 240 238 230 234 239 235 235 235 229 222 217 210 206 212 219 222 221 216 209 209 209 206 206 200 192 194 198 198 202 206 190 173 181 188 194 223 228 201 189 191 190 188 191 184 183 198 203 196 208 207
12 13 10 9 9 8 8 9 10 8 6 5 4 3 3 2 2 1 358 357 357 358 359 358 353 347 341 335 333 326 287 250 252 250 240 239 238 234 234 238 242 248 243 229 218 212 206 200 204 206 203 207 209 205 205 205 203 202 202 199 200 204 203 203 210 216 194 185 194 199 215 238 226 199 190 190 186 187 189 190 198 205 202 202 187
16 16 12 11 10 8 9 11 11 11 9 8 7 7 6 5 4 2 2 1 0 360 360 360 360 357 351 346 343 338 316 275 265 261 255 251 245 239 238 238 243 257 258 241 217 205 205 200 198 196 192 199 202 199 196 199 201 200 196 194 195 200 205 202 207 217 210 202 215 211 208 232 239 213 188 184 185 187 193 196 198 201 192 153 144
19 17 15 13 11 9 10 11 12 13 13 12 12 10 8 7 5 4 5 6 5 3 2 1 1 1 359 355 350 344 329 305 288 275 267 265 260 249 240 236 239 251 257 248 222 206 209 208 202 196 199 208 207 201 192 188 189 185 174 168 170 176 187 193 195 201 197 196 226 233 221 221 220 195 173 175 181 181 184 186 185 182 164 139 150
20 18 17 15 11 10 11 12 14 14 15 15 15 13 11 10 8 7 8 9 8 7 6 5 4 4 3 1 358 352 342 329 313 295 281 273 267 256 241 234 242 253 253 244 217 195 198 207 213 211 210 216 214 203 192 183 178 166 154 157 161 153 154 171 186 198 198 193 205 208 193 183 173 160 155 156 155 159 163 153 148 163 166 166 174
21 20 20 18 15 16 16 17 17 16 16 18 17 16 15 13 11 12 12 13 13 11 9 8 7 7 7 6 4 359 355 354 339 308 292 280 269 256 238 230 241 254 251 241 210 174 170 183 204 217 215 215 214 205 199 196 186 164 147 144 144 134 129 138 156 175 175 162 154 144 139 146 150 149 151 148 142 147 158 158 162 176 189 209 204
24 24 25 24 23 23 23 22 21 19 19 20 19 19 20 17 16 17 17 17 18 16 14 13 12 13 12 10 9 7 5 6 1 329 300 288 268 247 227 227 250 254 245 223 118 123 152 167 186 199 189 193 209 205 199 194 182 165 150 138 132 130 129 131 135 140 141 134 126 122 120 122 124 129 137 141 139 135 128 134 171 190 211 236 212
28 28 28 28 26 25 25 23 21 20 19 20 19 19 20 21 21 23 24 23 21 20 19 18 18 18 17 16 17 17 15 13 11 3 347 337 322 174 153 106 48 341 116 84 81 91 108 125 155 170 173 188 196 187 187 185 171 162 155 141 134 134 134 132 130 128 125 116 105 103 105 104 99 100 104 111 121 118 103 90 85 90 243 254 151
30 30 29 29 28 27 26 24 21 19 17 17 18 19 19 20 19 20 24 25 24 23 23 22 20 20 19 21 22 21 21 21 19 15 9 12 39 90 101 92 92 101 101 93 93 102 101 102 115 129 152 172 165 163 176 184 172 165 158 143 136 136 134 129 124 122 117 109 101 97 96 95 91 88 88 88 85 84 87 87 76 62 52 45 67
31 32 30 28 27 26 26 25 23 20 16 15 16 18 19 19 18 17 18 20 22 23 24 23 23 21 20 23 25 24 24 26 26 24 22 23 37 75 98 105 120 121 110 108 108 103 101 103 103 106 127 145 146 146 152 154 148 144 140 134 132 131 126 120 119 118 113 105 101 97 93 92 90 86 84 80 72 65 68 83 85 79 69 49 24
31 33 32 31 29 27 26 26 24 22 20 18 18 18 17 18 20 19 17 18 20 22 23 23 23 22 20 23 27 28 27 29 31 31 31 33 39 60 88 103 130 136 116 106 101 101 104 106 102 103 122 136 138 135 134 137 134 123 122 130 133 129 120 115 115 114 110 106 104 101 97 94 90 84 79 72 69 69 73 81 88 92 84 66 57
30 32 32 31 30 28 27 25 24 23 24 24 23 21 19 18 20 20 20 21 21 21 22 22 20 20 18 19 24 28 28 30 34 36 37 39 47 61 81 95 111 133 126 112 105 106 110 112 110 108 115 126 128 125 123 128 127 121 122 127 127 124 118 114 114 112 108 106 103 99 96 94 89 84 82 78 76 79 82 84 86 89 93 89 84
31 31 31 30 28 28 29 28 26 23 23 24 26 25 22 21 20 20 21 22 23 23 24 22 20 20 18 16 17 24 28 31 35 39 40 43 50 60 72 87 103 117 116 109 106 106 109 112 113 112 112 116 121 121 121 121 121 122 124 124 121 120 118 115 113 112 107 102 97 92 90 93 93 91 92 94 98 98 92 89 89 89 94 104 103
33 30 30 31 28 28 31 32 31 29 26 24 25 26 25 23 21 20 21 22 23 23 23 23 23 22 21 19 16 20 26 30 34 39 42 44 49 55 62 72 87 98 99 97 98 100 104 110 112 109 107 111 118 120 116 114 115 116 119 122 120 118 116 114 114 112 107 102 97 93 92 100 105 103 100 100 104 106 103 99 97 93 93 100 101
36 32 31 31 29 29 31 31 32 35 34 31 30 30 30 29 25 22 21 22 24 24 21 20 21 21 22 22 19 19 25 30 33 36 41 44 48 52 56 62 72 82 87 91 95 99 102 105 106 105 102 103 111 114 109 108 111 109 106 109 109 106 107 110 112 109 105 102 100 98 98 106 110 104 98 96 92 90 95 102 102 100 104 109 105
37 36 33 32 31 31 32 30 31 36 38 36 34 33 34 35 33 29 24 21 22 23 22 19 18 19 19 20 18 17 21 27 31 33 36 39 44 51 57 60 64 70 76 83 89 92 95 98 99 101 101 97 99 105 105 104 104 102 100 101 101 100 101 103 105 106 107 105 103 100 98 99 99 96 93 95 97 93 94 109 120 124 139 146 135
40 39 36 33 32 32 32 31 33 42 48 44 40 38 39 41 43 41 37 33 29 26 23 19 16 16 18 18 17 15 16 21 26 28 29 32 37 45 53 59 62 64 68 74 78 81 88 94 96 98 100 95 90 93 98 99 97 97 98 98 98 98 101 101 101 104 108 107 102 99 97 95 95 95 93 92 98 103 105 124 137 140 159 185 164
42 40 37 34 31 30 30 29 30 41 58 62 56 53 50 50 53 54 51 48 44 39 35 28 20 17 18 18 17 17 14 15 19 25 30 33 35 40 44 48 54 60 65 72 78 78 81 85 87 89 92 91 87 85 89 93 96 96 97 98 97 97 100 102 102 104 108 111 109 106 106 107 105 104 104 102 102 107 111 119 138 159 177 194 190
43 41 40 37 31 27 27 28 26 29 40 55 64 65 60 56 56 58 56 52 47 43 43 40 31 26 25 18 15 18 20 19 21 29 36 40 41 44 46 47 52 56 62 75 83 81 77 77 77 79 84 87 85 83 83 87 90 91 91 92 90 91 93 98 103 109 115 119 122 123 126 126 123 120 119 117 115 125 133 132 147 176 188 187 181
36 37 39 38 34 29 28 29 26 23 24 28 34 49 65 65 57 52 52 51 47 43 43 41 35 31 32 28 19 18 21 23 25 30 35 39 41 43 46 50 54 57 62 74 82 81 79 80 78 80 86 87 85 84 84 83 84 85 87 87 85 88 94 100 107 118 124 124 125 128 128 129 131 131 132 134 135 138 150 162 173 188 194 184 165
32 31 33 35 35 32 30 28 25 22 23 25 22 21 30 47 53 47 42 43 44 43 42 39 35 32 32 32 29 26 23 21 21 25 31 36 38 40 42 44 48 54 62 72 77 76 76 77 76 78 83 83 80 81 84 84 85 88 91 94 95 97 101 105 112 122 127 125 122 123 125 127 129 129 133 142 143 142 156 169 157 139 126 125 127
38 32 26 25 30 33 31 25 24 24 25 23 21 18 17 17 18 20 17 15 23 36 41 38 34 32 32 31 30 31 30 28 25 22 22 28 35 39 41 41 43 48 60 72 76 75 75 76 75 76 81 80 78 80 82 83 88 90 89 92 97 99 100 104 108 110 113 114 114 116 121 125 125 125 128 129 130 137 145 134 109 83 80 103 134
60 54 38 24 24 30 29 25 24 25 22 20 20 21 19 15 12 12 14 10 6 17 36 37 33 32 32 30 29 31 33 34 34 32 30 30 34 36 38 42 48 55 59 63 66 67 69 74 75 76 80 83 83 84 85 89 94 95 94 94 95 97 100 103 104 104 106 109 112 117 123 128 129 131 132 129 128 133 130 121 128 132 126 148 176
58 63 49 33 27 27 27 26 26 23 20 21 22 20 20 19 13 12 17 16 8 9 18 23 24 28 30 27 26 29 32 34 35 37 38 39 39 39 40 43 48 52 54 56 58 57 59 62 63 64 67 72 74 77 83 90 94 97 101 101 97 95 98 100 99 100 103 107 108 109 116 124 125 123 125 126 126 126 117 103 103 111 113 120 65
34 33 29 27 28 27 26 27 26 21 18 21 24 21 20 20 15 12 18 19 11 8 14 15 14 19 23 21 19 25 31 32 32 33 35 38 41 43 43 45 48 49 51 54 55 56 56 56 54 54 55 58 65 71 77 82 87 91 96 98 95 94 98 100 101 101 104 107 108 107 107 108 107 106 109 109 105 100 96 92 82 70 68 73 57
30 24 18 15 17 20 26 27 24 20 17 20 24 24 22 22 19 14 16 19 14 10 15 17 13 13 16 14 11 16 26 29 28 29 30 33 37 42 43 43 47 50 52 53 50 49 51 51 49 50 54 57 65 74 80 84 88 93 93 90 89 95 100 103 104 108 110 110 107 104 102 103 106 112 116 114 110 105 101 96 87 77 74 87 87
61 46 26 356 350 7 24 24 19 19 19 19 24 27 23 20 21 19 17 19 17 14 16 19 17 14 13 11 7 12 21 24 23 24 25 26 30 36 37 37 38 41 42 43 42 40 44 49 52 56 62 67 71 76 82 83 83 86 86 86 91 102 105 102 101 104 109 112 110 108 109 109 109 109 109 107 107 107 106 108 110 113 117 108 54
85 67 37 1 348 4 19 19 17 17 16 16 20 24 23 19 18 18 18 17 17 16 16 19 21 20 16 13 9 9 16 24 24 22 22 23 25 29 33 35 36 37 36 36 39 41 45 50 57 64 70 77 81 83 85 84 79 78 81 88 98 108 108 102 99 101 106 109 108 105 102 99 99 98 97 97 97 94 95 94 90 96 108 94 59
56 54 35 14 7 10 9 14 20 15 8 10 14 17 20 17 14 14 17 17 17 16 14 18 26 25 21 21 16 4 5 22 29 23 21 23 23 24 28 31 33 36 39 39 43 49 52 55 60 66 70 74 78 83 89 92 93 94 95 97 102 105 104 99 96 95 97 100 101 100 96 96 101 103 98 96 99 100 99 97 85 73 82 96 101
21 30 24 11 22 23 9 7 16 10 359 3 8 10 13 13 8 10 14 14 15 15 12 17 28 28 23 27 24 8 5 21 29 25 22 23 22 22 26 27 28 32 37 40 44 51 57 60 61 64 70 73 73 76 82 89 96 102 103 100 96 93 88 85 83 80 82 85 84 85 82 77 81 91 91 88 98 106 107 112 118 113 105 106 109
10 24 21 6 15 29 17 2 2 5 5 6 3 0 2 3 3 7 11 9 12 15 12 14 21 24 26 31 29 19 16 24 28 26 26 24 20 20 22 24 27 31 32 37 44 50 56 64 68 71 76 77 72 73 85 91 91 93 93 92 92 89 83 81 79 74 73 71 65 63 65 65 72 85 87 82 93 105 96 94 112 119 116 118 121
2 16 22 8 3 12 13 3 359 3 7 6 354 346 349 351 354 1 6 6 7 11 11 12 15 17 22 29 28 24 25 26 25 25 28 27 24 22 19 19 25 31 34 39 45 47 51 60 63 62 60 50 43 51 63 69 75 86 92 87 82 84 91 97 98 93 88 87 83 72 61 57 70 86 76 45 32 46 64 80 126 180 153 134 133
10 11 18 14 6 7 10 6 359 357 358 355 343 341 347 348 347 352 359 2 3 6 7 9 11 12 16 20 20 20 24 27 24 22 24 27 28 26 21 18 20 24 30 38 42 43 49 56 58 57 52 39 37 48 55 52 48 62 83 93 93 88 83 76 71 73 77 81 90 96 73 47 44 56 64 55 31 10 191 183 214 277 298 92 86
23 16 16 18 16 14 13 9 1 354 355 358 354 351 353 352 350 351 353 354 356 359 1 1 5 9 13 15 17 17 18 20 21 21 21 23 24 25 25 24 19 17 22 27 27 30 42 56 64 65 60 52 49 52 52 44 40 47 58 68 76 79 74 60 52 55 51 35 32 52 74 57 32 19 17 16 335 306 295 144 133 121 312 11 54
30 18 17 22 21 17 18 17 9 359 2 8 5 359 359 1 1 359 357 352 348 346 346 348 356 5 9 9 12 14 13 12 15 18 19 20 21 23 25 26 25 19 15 12 10 21 35 47 56 59 57 55 54 52 53 57 56 55 55 57 61 71 76 64 50 48 39 23 23 29 33 30 18 6 2 339 299 312 358 21 41 354 297 313 54
30 18 17 19 17 18 20 18 11 5 8 13 11 4 1 360 360 0 1 359 351 343 338 339 344 352 2 6 8 11 12 10 10 11 13 16 22 27 30 29 29 27 21 10 354 1 20 31 37 42 52 57 51 42 44 52 57 62 69 77 86 101 104 85 59 47 38 29 26 22 17 10 1 360 8 360 331 335 10 8 260 256 284 274 213
13 16 19 11 7 12 16 11 10 13 11 9 11 10 2 355 356 360 1 0 357 351 346 344 341 338 345 357 3 6 11 13 11 10 8 9 17 30 38 27 19 21 27 26 6 342 349 1 11 21 31 39 40 38 33 33 42 52 62 158 214 189 154 132 101 58 35 37 27 9 356 351 348 346 354 358 348 351 2 352 326 264 222 237 224
358 360 7 2 356 360 6 3 3 11 11 2 2 8 3 355 356 0 359 357 357 356 356 356 350 341 339 344 349 356 5 10 9 11 12 10 12 24 35 30 20 17 20 23 26 22 341 333 338 347 355 3 19 22 5 16 36 17 282 274 273 260 234 224 244 277 311 31 15 347 338 341 343 339 338 339 339 343 348 346 340 325 239 223 224
346 336 344 353 346 344 356 356 351 360 9 1 354 0 4 358 355 359 360 358 356 356 357 359 357 351 347 343 338 345 1 7 2 4 13 15 11 13 20 25 22 18 12 12 21 38 360 319 315 319 325 330 331 330 335 360 247 259 276 289 293 278 264 268 283 298 306 302 303 318 330 332 326 322 322 326 328 326 322 316 309 299 273 242 223
312 306 320 342 334 330 345 351 342 348 3 360 349 355 6 2 355 358 1 358 354 355 358 359 356 354 354 350 341 344 357 1 357 358 5 9 7 7 11 15 14 12 14 15 13 14 7 339 326 326 315 306 313 327 325 271 259 273 288 299 296 285 291 302 308 312 315 307 295 291 306 312 308 306 308 310 310 314 316 308 288 278 274 254 220